TimeCST,TemperatureF,Dew PointF,Humidity,Sea Level PressureIn,VisibilityMPH,Wind Direction,Wind SpeedMPH,Gust SpeedMPH,PrecipitationIn,Events,Conditions,WindDirDegrees,DateUTC
12:00 AM,57.2,55.4,94,30.24,10.0,Calm,Calm,-,N/A,,Mostly Cloudy,0,2013-01-23 06:00:00
12:09 AM,59.0,55.4,88,30.24,10.0,Calm,Calm,-,N/A,,Scattered Clouds,0,2013-01-23 06:09:00
12:52 AM,57.2,55.4,94,30.23,10.0,North,3.5,-,N/A,,Scattered Clouds,10,2013-01-23 06:52:00
1:02 AM,57.2,55.4,94,30.24,10.0,North,3.5,-,N/A,,Mostly Cloudy,350,2013-01-23 07:02:00
1:44 AM,57.2,55.4,94,30.24,10.0,North,3.5,-,N/A,,Scattered Clouds,360,2013-01-23 07:44:00
1:52 AM,57.9,55.9,93,30.24,10.0,North,3.5,-,N/A,,Scattered Clouds,10,2013-01-23 07:52:00
2:52 AM,59.0,57.0,93,30.23,10.0,NE,3.5,-,N/A,,Mostly Cloudy,50,2013-01-23 08:52:00
3:04 AM,60.8,57.2,88,30.23,10.0,NE,4.6,-,N/A,,Mostly Cloudy,50,2013-01-23 09:04:00
3:52 AM,59.0,57.0,93,30.22,7.0,Calm,Calm,-,N/A,,Clear,0,2013-01-23 09:52:00
4:52 AM,57.0,55.9,96,30.23,8.0,Calm,Calm,-,N/A,,Clear,0,2013-01-23 10:52:00
5:23 AM,57.2,57.2,100,30.22,1.8,East,3.5,-,N/A,,Clear,80,2013-01-23 11:23:00
5:39 AM,57.2,55.4,94,30.23,0.8,East,3.5,-,N/A,,Clear,80,2013-01-23 11:39:00
5:52 AM,57.0,55.9,96,30.23,0.5,ENE,3.5,-,N/A,Fog,Fog,70,2013-01-23 11:52:00
6:27 AM,57.2,57.2,100,30.25,0.5,NE,3.5,-,N/A,Fog,Fog,50,2013-01-23 12:27:00
6:52 AM,57.0,55.9,96,30.26,0.5,Calm,Calm,-,N/A,Fog,Fog,0,2013-01-23 12:52:00
7:02 AM,57.2,55.4,94,30.26,0.5,East,3.5,-,N/A,Fog,Fog,80,2013-01-23 13:02:00
7:24 AM,57.2,55.4,94,30.26,0.2,ENE,5.8,-,N/A,Fog,Fog,70,2013-01-23 13:24:00
7:52 AM,57.9,57.9,100,30.27,1.0,Calm,Calm,-,N/A,,Mist,0,2013-01-23 13:52:00
7:57 AM,57.2,57.2,100,30.27,2.0,East,3.5,-,N/A,,Clear,90,2013-01-23 13:57:00
8:06 AM,59.0,57.2,94,30.28,3.0,East,3.5,-,N/A,,Clear,90,2013-01-23 14:06:00
8:52 AM,63.0,62.1,97,30.29,9.0,ENE,3.5,-,N/A,,Clear,70,2013-01-23 14:52:00
9:17 AM,64.4,62.6,94,30.30,10.0,ESE,4.6,-,N/A,,Scattered Clouds,110,2013-01-23 15:17:00
9:52 AM,71.1,63.0,75,30.31,10.0,SSE,9.2,-,N/A,,Mostly Cloudy,150,2013-01-23 15:52:00
10:35 AM,73.4,62.6,69,30.31,10.0,SSE,11.5,-,N/A,,Scattered Clouds,160,2013-01-23 16:35:00
10:52 AM,75.9,63.0,64,30.31,10.0,SSE,13.8,-,N/A,,Scattered Clouds,160,2013-01-23 16:52:00
11:16 AM,75.2,62.6,65,30.31,10.0,SSE,12.7,-,N/A,,Mostly Cloudy,160,2013-01-23 17:16:00
11:49 AM,77.0,62.6,61,30.30,10.0,SSE,13.8,-,N/A,,Overcast,160,2013-01-23 17:49:00
11:52 AM,77.0,63.0,62,30.30,10.0,SSE,12.7,-,N/A,,Overcast,160,2013-01-23 17:52:00
12:52 PM,78.1,61.0,56,30.26,10.0,South,10.4,-,N/A,,Mostly Cloudy,170,2013-01-23 18:52:00
1:52 PM,77.0,61.0,58,30.24,10.0,SSE,10.4,-,N/A,,Overcast,160,2013-01-23 19:52:00
2:52 PM,78.1,62.1,58,30.23,10.0,SSE,9.2,-,N/A,,Overcast,150,2013-01-23 20:52:00
3:52 PM,80.1,62.1,54,30.21,10.0,SSE,10.4,-,N/A,,Scattered Clouds,160,2013-01-23 21:52:00
4:52 PM,75.0,62.1,64,30.21,10.0,SE,17.3,-,N/A,,Mostly Cloudy,130,2013-01-23 22:52:00
5:52 PM,73.0,62.1,68,30.21,10.0,SE,13.8,-,N/A,,Scattered Clouds,140,2013-01-23 23:52:00
6:52 PM,70.0,61.0,73,30.23,10.0,SE,11.5,-,N/A,,Clear,140,2013-01-24 00:52:00
7:52 PM,66.9,61.0,81,30.25,10.0,SE,8.1,-,N/A,,Clear,130,2013-01-24 01:52:00
8:52 PM,64.9,60.1,84,30.26,10.0,SE,5.8,-,N/A,,Clear,130,2013-01-24 02:52:00
9:52 PM,62.1,59.0,90,30.26,10.0,SE,4.6,-,N/A,,Clear,130,2013-01-24 03:52:00
10:52 PM,61.0,59.0,93,30.26,10.0,SE,6.9,-,N/A,,Clear,140,2013-01-24 04:52:00
11:52 PM,59.0,57.0,93,30.25,10.0,SSE,8.1,-,N/A,,Clear,150,2013-01-24 05:52:00